Rome Fiumicino, Italy

9:28 AM CET on January 17, 2018 (GMT +0100)
Fiumicino

Weather History for LIRF - September, 2013

Change the Weather History Date:

Wednesday, September 11, 2013

  Actual Average Record
Temperature  
Mean Temperature 72 °F -  
Max Temperature 78 °F 76 °F 89 °F (2008)
Min Temperature 66 °F 58 °F 50 °F (2001)
Cooling Degree Days 7    
Growing Degree Days 22 (Base 50)    
Moisture  
Dew Point 64 °F    
Average Humidity 74    
Maximum Humidity 100    
Minimum Humidity 57    
Precipitation  
Precipitation 0.00 in 0.10 in - ()
Sea Level Pressure  
Sea Level Pressure 29.98 in    
Wind  
Wind Speed 10 mph ()    
Max Wind Speed 21 mph    
Max Gust Speed -    
Visibility 6.2 miles    
Events      
Averages and records for this station are not official NWS values.
T = Trace of Precipitation, MM = Missing Value Source: Averaged Metar Reports

Daily Weather History Graph

Daily Weather History Graph

Search for Another Location

Airport or City:

Trip Planner

Search our weather history database for the weather conditions in past years. The results will help you decide how hot, cold, wet, or windy it might be!

Date:

Astronomy

Sep. 11, 2013 Rise Set
Actual Time 6:47 AM CEST 7:27 PM CEST
Civil Twilight 6:19 AM CEST 7:55 PM CEST
Nautical Twilight 5:45 AM CEST 8:28 PM CEST
Astronomical Twilight 5:11 AM CEST 9:02 PM CEST
Moon 1:03 PM CEST (9/11) 11:02 PM CEST (9/11)
Length of Visible Light 13h 36m
Length of Day
12h 40m
Waxing Crescent, 36% of the Moon is Illuminated
Sep 11
Waxing Crescent
Sep 12
First Quarter
Sep 19
Full
Sep 27
Last Quarter
Oct 5
New

Hourly Weather History & Observations

Time (CEST) Temp. Dew Point Humidity Pressure Visibility Wind Dir Wind Speed Gust Speed Precip Events Conditions
12:20 AM 71.6 °F 66.2 °F 83% 29.98 in 6.2 mi WSW 9.2 mph - N/A   Partly Cloudy
12:50 AM 71.6 °F 66.2 °F 83% 29.98 in 6.2 mi WSW 8.1 mph - N/A   Partly Cloudy
1:20 AM 69.8 °F 66.2 °F 88% 29.98 in 6.2 mi WSW 6.9 mph - N/A   Partly Cloudy
1:50 AM 66.2 °F 64.4 °F 94% 29.98 in 6.2 mi East 4.6 mph - N/A   Scattered Clouds
2:20 AM 66.2 °F 66.2 °F 100% 29.95 in 6.2 mi East 6.9 mph - N/A   Scattered Clouds
2:50 AM 66.2 °F 66.2 °F 100% 29.95 in 6.2 mi East 8.1 mph - N/A   Scattered Clouds
3:20 AM 66.2 °F 66.2 °F 100% 29.95 in 6.2 mi East 6.9 mph - N/A   Scattered Clouds
3:50 AM 66.2 °F 66.2 °F 100% 29.95 in 6.2 mi East 6.9 mph - N/A   Scattered Clouds
4:20 AM 68.0 °F 68.0 °F 100% 29.92 in 6.2 mi SE 6.9 mph - N/A   Scattered Clouds
4:50 AM 68.0 °F 66.2 °F 94% 29.95 in 6.2 mi ESE 4.6 mph - N/A   Scattered Clouds
5:20 AM 68.0 °F 66.2 °F 94% 29.95 in 6.2 mi East 5.8 mph - N/A   Scattered Clouds
5:50 AM 66.2 °F 66.2 °F 100% 29.95 in 6.2 mi East 6.9 mph - N/A   Scattered Clouds
6:50 AM 68.0 °F 66.2 °F 94% 29.95 in 6.2 mi ESE 6.9 mph - N/A   Scattered Clouds
7:20 AM 68.0 °F 68.0 °F 100% 29.95 in 6.2 mi Variable 4.6 mph - N/A   Scattered Clouds
7:50 AM 71.6 °F 64.4 °F 78% 29.95 in 6.2 mi WSW 12.7 mph - N/A   Partly Cloudy
8:20 AM 73.4 °F 64.4 °F 73% 29.98 in 6.2 mi WSW 11.5 mph - N/A   Partly Cloudy
8:50 AM 73.4 °F 64.4 °F 73% 29.98 in 6.2 mi WSW 12.7 mph - N/A   Scattered Clouds
9:20 AM 75.2 °F 64.4 °F 69% 29.98 in 6.2 mi SW 13.8 mph - N/A   Mostly Cloudy
9:50 AM 75.2 °F 64.4 °F 69% 29.98 in 6.2 mi SW 12.7 mph - N/A   Mostly Cloudy
10:20 AM 75.2 °F 66.2 °F 73% 29.98 in 6.2 mi WSW 15.0 mph - N/A   Mostly Cloudy
10:50 AM 77.0 °F 66.2 °F 69% 29.98 in 6.2 mi WSW 13.8 mph - N/A   Scattered Clouds
11:20 AM 77.0 °F 64.4 °F 65% 30.01 in 6.2 mi WSW 15.0 mph - N/A   Mostly Cloudy
11:50 AM 77.0 °F 64.4 °F 65% 30.01 in 6.2 mi WSW 16.1 mph - N/A   Scattered Clouds
12:20 PM 77.0 °F 64.4 °F 65% 30.01 in 6.2 mi WSW 17.3 mph - N/A   Mostly Cloudy
12:50 PM 77.0 °F 64.4 °F 65% 30.01 in 6.2 mi WSW 18.4 mph - N/A   Mostly Cloudy
1:20 PM 77.0 °F 64.4 °F 65% 30.01 in 6.2 mi WSW 17.3 mph - N/A   Mostly Cloudy
1:50 PM 77.0 °F 62.6 °F 61% 30.01 in 6.2 mi WSW 18.4 mph - N/A   Scattered Clouds
2:20 PM 77.0 °F 62.6 °F 61% 29.98 in 6.2 mi WSW 18.4 mph - N/A   Scattered Clouds
2:50 PM 78.8 °F 62.6 °F 57% 30.01 in 6.2 mi WSW 19.6 mph - N/A   Scattered Clouds
3:50 PM 77.0 °F 60.8 °F 57% 30.01 in 6.2 mi WSW 20.7 mph - N/A   Scattered Clouds
4:20 PM 77.0 °F 62.6 °F 61% 29.98 in 6.2 mi WSW 19.6 mph - N/A   Scattered Clouds
4:50 PM 75.2 °F 62.6 °F 65% 29.98 in 6.2 mi WSW 16.1 mph - N/A   Scattered Clouds
5:20 PM 75.2 °F 62.6 °F 65% 29.98 in 6.2 mi WSW 13.8 mph - N/A   Partly Cloudy
5:50 PM 75.2 °F 62.6 °F 65% 29.98 in 6.2 mi WSW 15.0 mph - N/A   Partly Cloudy
6:20 PM 75.2 °F 62.6 °F 65% 29.98 in 6.2 mi WSW 13.8 mph - N/A   Scattered Clouds
6:50 PM 75.2 °F 60.8 °F 61% 29.98 in 6.2 mi WSW 12.7 mph - N/A   Scattered Clouds
7:20 PM 73.4 °F 62.6 °F 69% 29.98 in 6.2 mi WSW 13.8 mph - N/A   Partly Cloudy
7:50 PM 73.4 °F 62.6 °F 69% 29.98 in 6.2 mi WSW 11.5 mph - N/A   Partly Cloudy
8:20 PM 73.4 °F 59.0 °F 61% 29.98 in 6.2 mi WSW 15.0 mph - N/A   Partly Cloudy
8:50 PM 73.4 °F 59.0 °F 61% 29.98 in - WSW 16.1 mph - N/A   Clear
9:20 PM 73.4 °F 57.2 °F 57% 29.98 in - West 15.0 mph - N/A   Clear
9:50 PM 73.4 °F 59.0 °F 61% 29.98 in - WSW 17.3 mph - N/A   Clear
10:20 PM 71.6 °F 59.0 °F 64% 29.98 in - West 13.8 mph - N/A   Clear
10:50 PM 71.6 °F 60.8 °F 69% 29.98 in - West 11.5 mph - N/A   Clear
11:20 PM 71.6 °F 60.8 °F 69% 29.98 in - West 13.8 mph - N/A   Clear
11:50 PM 71.6 °F 60.8 °F 69% 29.98 in - West 12.7 mph - N/A   Clear